CW0343 Weather Reports


Display with metric or nautical units.
time (UTC)temp
F
wind
direction
speed
MPH
gust
MPH
rain 1hr
in
rain 24hr
in
rain mn
in
humidity
%
barometer
mb
20260509071304 72 159 8.0 15.0 0.00 0.00 0.00 73 1017.1
20260509070805 72 152 6.0 12.0 0.00 0.00 0.00 73 1017.1
20260509070304 72 148 9.0 13.0 0.00 0.00 0.00 73 1017.0
20260509065306 73 149 9.0 17.0 0.00 0.00 0.00 72 1016.8
20260509064806 74 131 3.0 3.0 0.00 0.00 0.00 71 1016.7
20260509064304 74 131 4.0 10.0 0.00 0.00 0.00 71 1016.6
20260509063805 74 166 10.0 14.0 0.00 0.00 0.00 71 1016.6
20260509063304 78 3 0.0 0.0 0.00 0.00 0.00 66 1016.5
20260509062804 78 3 0.0 0.0 0.00 0.00 0.00 66 1016.3
20260509062306 78 3 0.0 0.0 0.00 0.00 0.00 66 1016.2
20260509061804 78 3 0.0 0.0 0.00 0.00 0.00 66 1016.1
20260509061304 78 3 0.0 0.0 0.00 0.00 0.00 66 1016.1
20260509060805 78 3 0.0 0.0 0.00 0.00 0.00 66 1016.0
20260509060304 78 3 0.0 0.0 0.00 0.00 0.00 66 1016.0
20260509055804 78 3 0.0 0.0 0.00 0.00 0.00 66 1016.0
20260509055307 78 3 0.0 0.0 0.00 0.00 0.00 66 1015.9
20260509054304 78 3 0.0 0.0 0.00 0.00 0.00 66 1015.8
20260509053805 78 3 0.0 0.0 0.00 0.00 0.00 66 1015.8
20260509053304 78 3 0.0 8.0 0.00 0.00 0.00 66 1015.7
20260509052805 78 160 8.0 8.0 0.00 0.00 0.00 66 1015.4
20260509052307 78 160 8.0 12.0 0.00 0.00 0.00 66 1015.5
20260509051305 79 143 7.0 15.0 0.00 0.00 0.00 66 1015.6
20260509050805 78 131 7.0 15.0 0.00 0.00 0.00 66 1015.5
20260509050304 78 133 9.0 13.0 0.00 0.00 0.00 67 1015.5
20260509045805 78 158 9.0 17.0 0.00 0.00 0.00 67 1015.6
20260509045306 78 107 7.0 14.0 0.00 0.00 0.00 67 1015.5
20260509044304 77 155 7.0 12.0 0.00 0.00 0.00 68 1015.6
20260509043804 77 105 10.0 15.0 0.00 0.00 0.00 67 1015.6
20260509043304 78 133 6.0 12.0 0.00 0.00 0.00 67 1015.6
20260509042805 78 167 12.0 17.0 0.00 0.00 0.00 67 1015.6
20260509042306 77 148 9.0 14.0 0.00 0.00 0.00 68 1015.6
20260509041304 77 158 10.0 15.0 0.00 0.00 0.00 69 1015.8
20260509040305 77 148 9.0 15.0 0.00 0.00 0.00 69 1016.0
20260509035806 77 149 7.0 16.0 0.00 0.00 0.00 69 1016.1
20260509035306 77 137 10.0 17.0 0.00 0.00 0.00 69 1016.1
20260509034804 76 156 8.0 17.0 0.00 0.00 0.00 70 1016.2
20260509034304 76 154 12.0 20.0 0.00 0.00 0.00 70 1016.2
20260509033804 76 128 10.0 16.0 0.00 0.00 0.00 70 1016.2
20260509033304 76 164 12.0 16.0 0.00 0.00 0.00 70 1016.3
20260509032805 76 146 10.0 14.0 0.00 0.00 0.00 70 1016.4
20260509032306 76 132 9.0 15.0 0.00 0.00 0.00 70 1016.4
20260509031804 76 145 8.0 14.0 0.00 0.00 0.00 70 1016.5
20260509030804 77 167 9.0 12.0 0.00 0.00 0.00 69 1016.4
20260509025306 77 142 8.0 14.0 0.00 0.00 0.00 68 1016.5
20260509024804 77 144 9.0 15.0 0.00 0.00 0.00 68 1016.6
20260509024304 78 137 9.0 12.0 0.00 0.00 0.00 68 1016.7
20260509023805 78 156 10.0 15.0 0.00 0.00 0.00 68 1016.8
20260509022804 78 157 9.0 14.0 0.00 0.00 0.00 70 1016.7
20260509022307 77 122 9.0 12.0 0.00 0.00 0.00 70 1016.8
20260509021804 77 127 9.0 14.0 0.00 0.00 0.00 70 1016.9
20260509021305 77 157 9.0 16.0 0.00 0.00 0.00 70 1017.0
20260509020804 77 148 10.0 16.0 0.00 0.00 0.00 71 1017.1
20260509015804 77 139 10.0 17.0 0.00 0.00 0.00 70 1017.2
20260509015306 77 155 11.0 17.0 0.00 0.00 0.00 72 1017.3
20260509014804 77 126 8.0 14.0 0.00 0.00 0.00 72 1017.2
20260509014304 76 148 10.0 16.0 0.00 0.00 0.00 72 1017.3
20260509013804 76 150 8.0 21.0 0.00 0.00 0.00 73 1017.4
20260509013304 75 139 12.0 18.0 0.00 0.00 0.00 73 1017.4
20260509012804 75 144 11.0 16.0 0.00 0.00 0.00 73 1017.6
20260509012307 75 150 10.0 17.0 0.00 0.00 0.00 74 1017.6
20260509011305 74 138 9.0 15.0 0.00 0.00 0.00 75 1017.7
20260509010804 74 127 9.0 20.0 0.00 0.00 0.00 74 1017.8
20260509010305 74 135 13.0 16.0 0.00 0.00 0.00 75 1017.8
20260509005804 74 155 12.0 12.0 0.00 0.00 0.00 73 1017.9
20260509005306 74 155 12.0 16.0 0.00 0.00 0.00 73 1017.9
20260509004804 75 152 11.0 18.0 0.00 0.00 0.00 73 1017.9
20260509004305 75 142 10.0 20.0 0.00 0.00 0.00 73 1017.9
20260509003804 75 150 10.0 20.0 0.00 0.00 0.00 72 1017.9
20260509003305 76 160 14.0 18.0 0.00 0.00 0.00 73 1017.9
20260509002804 75 147 10.0 20.0 0.00 0.00 0.00 73 1018.0
20260509001804 75 141 10.0 16.0 0.00 0.00 0.00 74 1017.9
20260509001304 75 159 15.0 21.0 0.00 0.00 0.00 74 1017.9
20260509000805 75 127 10.0 20.0 0.00 0.00 0.00 74 1017.9
20260509000304 74 118 10.0 14.0 0.00 0.00 0.00 74 1018.0
20260508235804 74 130 9.0 12.0 0.00 0.00 0.00 74 1018.0
20260508234804 74 2 0.0 8.0 0.00 0.00 0.00 75 1018.0
20260508234304 74 167 8.0 8.0 0.00 0.00 0.00 75 1017.9
20260508233805 74 167 8.0 13.0 0.00 0.00 0.00 75 1017.9
20260508233304 74 163 9.0 15.0 0.00 0.00 0.00 76 1017.9
20260508232307 73 115 11.0 18.0 0.00 0.00 0.00 75 1018.0
20260508231804 73 150 11.0 16.0 0.00 0.00 0.00 75 1018.0
20260508231304 73 129 3.0 15.0 0.00 0.00 0.00 74 1018.0
20260508230818 75 119 7.0 7.0 0.00 0.00 0.00 73 1018.0
20260508225805 75 146 12.0 14.0 0.00 0.00 0.00 73 1017.8
20260508225307 75 144 8.0 20.0 0.00 0.00 0.00 73 1017.8
20260508224804 75 156 10.0 17.0 0.00 0.00 0.00 74 1017.8
20260508224304 75 146 9.0 14.0 0.00 0.00 0.00 74 1017.8
20260508223805 75 149 9.0 16.0 0.00 0.00 0.00 74 1017.6
20260508223304 74 106 8.0 16.0 0.00 0.00 0.00 74 1017.6
20260508222804 74 130 8.0 15.0 0.00 0.00 0.00 74 1017.5
20260508222306 74 130 6.0 12.0 0.00 0.00 0.00 75 1017.5
20260508221804 73 114 7.0 13.0 0.00 0.00 0.00 76 1017.4
20260508221304 72 140 5.0 10.0 0.00 0.00 0.00 76 1017.3
20260508220804 72 129 7.0 14.0 0.00 0.00 0.00 77 1017.3
20260508220305 72 111 10.0 15.0 0.00 0.00 0.00 77 1017.3
20260508215805 71 116 8.0 9.0 0.00 0.00 0.00 78 1017.3
20260508215306 71 113 9.0 12.0 0.00 0.00 0.00 78 1017.3
20260508214804 71 103 12.0 12.0 0.00 0.00 0.00 81 1017.3
20260508214304 71 103 12.0 12.0 0.00 0.00 0.00 81 1017.1
20260508213305 69 3 0.0 0.0 0.00 0.00 0.00 81 1017.0
20260508212804 69 3 0.0 10.0 0.00 0.00 0.00 81 1016.9
20260508212306 69 139 10.0 10.0 0.00 0.00 0.00 81 1016.8
20260508211804 69 139 10.0 10.0 0.00 0.00 0.00 81 1016.7
20260508210804 69 123 3.0 9.0 0.00 0.00 0.00 81 1016.6
20260508210304 68 3 0.0 0.0 0.00 0.00 0.00 80 1016.6
20260508205804 68 3 0.0 0.0 0.00 0.00 0.00 80 1016.5
20260508205306 68 3 0.0 0.0 0.00 0.00 0.00 80 1016.4
20260508204804 68 3 0.0 0.0 0.00 0.00 0.00 80 1016.3
20260508202805 68 124 5.0 5.0 0.00 0.00 0.00 80 1016.1
20260508202307 68 124 9.0 14.0 0.00 0.00 0.00 80 1016.0
20260508201804 68 131 7.0 15.0 0.00 0.00 0.00 80 1015.9
20260508201305 68 128 6.0 12.0 0.00 0.00 0.00 80 1015.8
20260508200305 68 141 8.0 15.0 0.00 0.00 0.00 80 1015.8
20260508195804 69 165 7.0 14.0 0.00 0.00 0.00 80 1015.7
20260508195306 69 134 7.0 13.0 0.00 0.00 0.00 80 1015.7
20260508194804 69 152 6.0 10.0 0.00 0.00 0.00 80 1015.7
20260508193806 69 3 0.0 0.0 0.00 0.00 0.00 80 1015.8
20260508193304 69 3 0.0 3.0 0.00 0.00 0.00 80 1015.8
20260508192805 69 115 3.0 3.0 0.00 0.00 0.00 80 1015.8
20260508192306 69 115 3.0 6.0 0.00 0.00 0.00 80 1016.0
20260508191804 69 122 3.0 6.0 0.00 0.00 0.00 80 1016.0
20260508191305 69 117 4.0 7.0 0.00 0.00 0.00 80 1016.0
20260508190805 69 128 3.0 3.0 0.00 0.00 0.00 80 1015.8
20260508190304 69 127 7.0 12.0 0.00 0.00 0.00 80 1015.7
20260508185804 69 122 6.0 12.0 0.00 0.00 0.00 80 1015.7
20260508185306 68 124 7.0 15.0 0.00 0.00 0.00 81 1015.7
20260508183804 68 147 7.0 13.0 0.00 0.00 0.00 81 1015.6
20260508183305 68 145 6.0 12.0 0.00 0.00 0.00 81 1015.7
20260508182804 68 148 5.0 14.0 0.00 0.00 0.00 81 1015.6
20260508182306 68 143 5.0 10.0 0.00 0.00 0.00 81 1015.7
20260508181804 68 130 5.0 10.0 0.00 0.00 0.00 81 1015.7
20260508181305 68 147 4.0 12.0 0.00 0.00 0.00 81 1015.6
20260508180304 68 157 3.0 9.0 0.00 0.00 0.00 81 1015.6
20260508175804 68 150 5.0 9.0 0.00 0.00 0.00 81 1015.5
20260508175306 68 148 3.0 8.0 0.00 0.00 0.00 81 1015.5
20260508174804 68 132 3.0 8.0 0.00 0.00 0.00 81 1015.5
20260508173804 68 107 4.0 12.0 0.00 0.00 0.00 81 1015.5
20260508173304 68 122 2.0 9.0 0.00 0.00 0.00 81 1015.5
20260508172804 68 120 3.0 5.0 0.00 0.00 0.00 81 1015.6
20260508172307 68 126 5.0 12.0 0.00 0.00 0.00 81 1015.6
20260508171804 68 145 5.0 9.0 0.00 0.00 0.00 81 1015.6
20260508171304 68 124 7.0 10.0 0.00 0.00 0.00 81 1015.7
20260508170804 68 122 5.0 8.0 0.00 0.00 0.00 81 1015.7
20260508170304 68 127 4.0 8.0 0.00 0.00 0.00 81 1015.8
20260508165804 68 140 4.0 8.0 0.00 0.00 0.00 81 1015.7
20260508165307 69 162 6.0 13.0 0.00 0.00 0.00 81 1015.7
20260508164805 69 138 3.0 9.0 0.00 0.00 0.00 81 1015.7
20260508164304 69 119 3.0 7.0 0.00 0.00 0.00 81 1015.8
20260508163805 69 150 6.0 6.0 0.00 0.00 0.00 81 1015.9
20260508163306 69 150 6.0 9.0 0.00 0.00 0.00 81 1016.0
20260508162804 69 155 4.0 10.0 0.00 0.00 0.00 81 1016.0
20260508161804 69 143 6.0 14.0 0.00 0.00 0.00 81 1016.0
20260508161304 69 139 7.0 13.0 0.00 0.00 0.00 81 1016.0
20260508160804 69 133 5.0 12.0 0.00 0.00 0.00 81 1016.0
20260508160304 69 118 5.0 10.0 0.00 0.00 0.00 81 1016.0
20260508155804 69 143 5.0 9.0 0.00 0.00 0.00 81 1016.1
20260508155306 69 139 4.0 9.0 0.00 0.00 0.00 81 1016.2
20260508154805 69 125 6.0 9.0 0.00 0.00 0.00 81 1016.1
20260508153805 69 1 0.0 0.0 0.00 0.00 0.00 81 1016.2
20260508152306 69 162 3.0 3.0 0.00 0.00 0.00 81 1016.4
20260508151805 69 163 3.0 8.0 0.00 0.00 0.00 81 1016.4
20260508151304 69 6 1.0 7.0 0.00 0.00 0.00 81 1016.5
20260508150804 69 157 7.0 7.0 0.00 0.00 0.00 81 1016.3
20260508145804 69 135 8.0 14.0 0.00 0.00 0.00 81 1016.5
20260508145306 69 140 5.0 12.0 0.00 0.00 0.00 81 1016.5
20260508144803 69 122 9.0 14.0 0.00 0.00 0.00 81 1016.7
20260508144304 69 156 7.0 13.0 0.00 0.00 0.00 81 1016.7
20260508143804 69 143 6.0 12.0 0.00 0.00 0.00 81 1016.6
20260508143305 69 153 6.0 9.0 0.00 0.00 0.00 81 1016.7
20260508142804 69 136 7.0 14.0 0.00 0.00 0.00 81 1016.6
20260508142306 69 123 6.0 14.0 0.00 0.00 0.00 81 1016.7
20260508141804 69 154 6.0 12.0 0.00 0.00 0.00 81 1016.7
20260508141304 69 139 7.0 13.0 0.00 0.00 0.00 81 1016.8
20260508140804 69 173 3.0 10.0 0.00 0.00 0.00 81 1016.7
20260508140305 69 134 7.0 12.0 0.00 0.00 0.00 81 1016.8
20260508135804 69 126 3.0 9.0 0.00 0.00 0.00 81 1016.9
20260508135306 69 140 5.0 12.0 0.00 0.00 0.00 81 1016.9
20260508134804 69 148 5.0 12.0 0.00 0.00 0.00 81 1017.0
20260508134305 69 146 6.0 12.0 0.00 0.00 0.00 81 1017.0
20260508133805 69 145 6.0 9.0 0.00 0.00 0.00 81 1017.0
20260508133305 69 131 7.0 13.0 0.00 0.00 0.00 81 1017.0
20260508132805 69 135 3.0 10.0 0.00 0.00 0.00 81 1017.1
20260508131805 69 154 2.0 7.0 0.00 0.00 0.00 80 1017.2
20260508131304 69 126 4.0 8.0 0.00 0.00 0.00 80 1017.3
20260508130805 69 138 5.0 12.0 0.00 0.00 0.00 80 1017.4
20260508130304 69 149 3.0 7.0 0.00 0.00 0.00 80 1017.5
20260508125306 69 138 4.0 9.0 0.00 0.00 0.00 80 1017.5
20260508124804 70 120 3.0 6.0 0.00 0.00 0.00 80 1017.6
20260508124305 70 139 6.0 12.0 0.00 0.00 0.00 80 1017.5
20260508123805 70 152 3.0 12.0 0.00 0.00 0.00 80 1017.7
20260508123304 70 123 12.0 12.0 0.00 0.00 0.00 80 1017.8
20260508122806 70 123 12.0 12.0 0.00 0.00 0.00 80 1017.8
20260508122306 70 102 2.0 10.0 0.00 0.00 0.00 80 1017.8
20260508121806 70 2 0.0 0.0 0.00 0.00 0.00 80 1017.8
20260508121304 70 1 0.0 0.0 0.00 0.00 0.00 80 1017.8
20260508120805 70 6 1.0 7.0 0.00 0.00 0.00 80 1017.8
20260508120305 70 123 7.0 7.0 0.00 0.00 0.00 80 1017.8
20260508115804 70 123 7.0 8.0 0.00 0.00 0.00 80 1017.7
20260508115306 70 109 6.0 10.0 0.00 0.00 0.00 80 1017.8
20260508114805 70 126 7.0 13.0 0.00 0.00 0.00 80 1017.8
20260508114304 70 138 6.0 12.0 0.00 0.00 0.00 80 1017.8
20260508112806 70 146 5.0 9.0 0.00 0.00 0.00 80 1018.0
20260508111805 70 2 0.0 0.0 0.00 0.00 0.00 80 1018.0
20260508110805 70 138 7.0 7.0 0.00 0.00 0.00 80 1018.0
20260508110304 70 155 7.0 7.0 0.00 0.00 0.00 80 1017.9
20260508105306 70 147 7.0 12.0 0.00 0.00 0.00 80 1018.0
20260508104804 70 151 8.0 12.0 0.00 0.00 0.00 80 1018.0
20260508104305 70 149 6.0 14.0 0.00 0.00 0.00 80 1017.9
20260508103804 70 170 6.0 14.0 0.00 0.00 0.00 80 1017.9
20260508102804 70 142 5.0 10.0 0.00 0.00 0.00 81 1017.8
20260508100304 70 144 4.0 8.0 0.00 0.00 0.00 81 1017.5
20260508095804 70 158 5.0 9.0 0.00 0.00 0.00 81 1017.3
20260508094804 70 150 5.0 9.0 0.00 0.00 0.00 81 1017.2
20260508094305 70 145 6.0 12.0 0.00 0.00 0.00 81 1017.2
20260508093805 70 146 7.0 14.0 0.00 0.00 0.00 81 1017.1
20260508093304 70 140 7.0 12.0 0.00 0.00 0.00 81 1017.1
20260508092804 70 149 6.0 10.0 0.00 0.00 0.00 81 1017.0
20260508091804 70 147 2.0 8.0 0.00 0.00 0.00 81 1016.9
20260508091304 70 128 7.0 12.0 0.00 0.00 0.00 80 1016.9
20260508090805 70 137 5.0 9.0 0.00 0.00 0.00 81 1016.8
20260508090305 70 148 6.0 12.0 0.00 0.00 0.00 81 1016.9
20260508085805 70 161 5.0 12.0 0.00 0.00 0.00 81 1016.8
20260508085307 70 146 4.0 12.0 0.00 0.00 0.00 81 1016.7
20260508084804 70 164 7.0 12.0 0.00 0.00 0.00 80 1016.7
20260508084304 70 143 5.0 12.0 0.00 0.00 0.00 80 1016.6
20260508083805 71 126 6.0 12.0 0.00 0.00 0.00 80 1016.5
20260508083304 71 143 7.0 16.0 0.00 0.00 0.00 80 1016.4
20260508082805 71 145 4.0 21.0 0.00 0.00 0.00 80 1016.4
20260508082306 71 121 5.0 10.0 0.00 0.00 0.00 79 1016.4
20260508081804 71 154 6.0 10.0 0.00 0.00 0.00 79 1016.3
20260508081306 72 155 5.0 14.0 0.00 0.00 0.00 79 1016.3
20260508080804 72 137 3.0 9.0 0.00 0.00 0.00 79 1016.1
20260508080305 72 124 4.0 9.0 0.00 0.00 0.00 79 1016.1
20260508075806 72 162 7.0 12.0 0.00 0.00 0.00 79 1015.9
20260508075308 72 168 6.0 12.0 0.00 0.00 0.00 79 1015.9
20260508074805 72 144 6.0 12.0 0.00 0.00 0.00 78 1015.8
20260508074304 72 131 4.0 9.0 0.00 0.00 0.00 78 1015.8
20260508073305 73 149 4.0 9.0 0.00 0.00 0.00 78 1015.7
20260508072805 73 145 4.0 9.0 0.00 0.00 0.00 78 1015.6
20260508072307 73 118 7.0 14.0 0.00 0.00 0.00 77 1015.7
20260508071804 73 159 10.0 15.0 0.00 0.00 0.00 77 1015.6